マクノート彗星

C/2009 T1 ( McNaught )

English version
Home page
Updated on September 14, 2013

---------------------------------------------------------------------

・ プロフィール

発見日 2009年10月9日
発見光度 17.8等
発見者 R. H. McNaught (Siding Spring Survey)

・ 軌道要素

Epoch 2009 Oct. 16.0 TT = JDT 2455120.5
T 2009 Oct. 8.16657 TT                                  MPC
q   6.2203599            (2000.0)            P               Q
z  +0.0002541      Peri.  282.52088     +0.12763353     +0.56795216
 +/-0.0000025      Node    54.40056     +0.54910623     +0.64224129
e   0.9984195      Incl.   89.89652     -0.82594917     +0.51473922
From 119 observations 2009 Oct. 9-2011 Oct. 4, mean residual 0".6.

・ 光度変化

        m1 = 5.8 + 5 logΔ + 10.0 log r

---------------------------------------------------------------------

軌道要素はM.P.E.C. 2011-T39に掲載されたものです。
光度グラフはComet for Windowsで作成したものです。

---------------------------------------------------------------------

Copyright(C) Seiichi Yoshida (comet@aerith.net). All rights reserved.